Weather History for KRIL - March, 2013

Change the Weather History Date:

Wednesday, March 6, 2013

  Actual Average Record
Temperature  
Mean Temperature 41 °F 37 °F  
Max Temperature 60 °F 50 °F 71 °F (1972)
Min Temperature 22 °F 24 °F -5 °F (1939)
Degree Days  
Heating Degree Days 24 28  
Month to date heating degree days 176 174  
Since 1 July heating degree days 5230 5171  
Cooling Degree Days 0 0  
Month to date cooling degree days 0 0  
Year to date cooling degree days 0 0  
Moisture  
Dew Point 20 °F    
Average Humidity 53    
Maximum Humidity 84    
Minimum Humidity 21    
Precipitation  
Precipitation 0.00 in 0.03 in 0.35 in (1921)
Month to date precipitation 0.11 0.19  
Year to date precipitation 0.88 1.76  
Sea Level Pressure  
Sea Level Pressure 30.01 in    
Wind  
Wind Speed 6 mph (SSW)    
Max Wind Speed 21 mph    
Max Gust Speed 26 mph    
Visibility 10 miles    
Events      
T = Trace of Precipitation, MM = Missing Value Source: NWS Daily Summary

Daily Weather History Graph

Daily Weather History Graph

Search for Another Location

Airport or City:

Trip Planner

Search our weather history database for the weather conditions in past years. The results will help you decide how hot, cold, wet, or windy it might be!

Date:

Astronomy

Mar. 06, 2013 Rise Set
Actual Time 6:35 AM MST 6:08 PM MST
Civil Twilight 6:09 AM MST 6:35 PM MST
Nautical Twilight 5:37 AM MST 7:06 PM MST
Astronomical Twilight 5:06 AM MST 7:38 PM MST
Moon 2:46 AM MST (3/6) 12:54 PM MST (3/6)
Length of Visible Light 12h 26m
Length of Day
11h 33m
Waning Crescent, 29% of the Moon is Illuminated
Mar 6
Waning Crescent
Mar 11
New
Mar 19
First Quarter
Mar 27
Full
Apr 2
Last Quarter

Hourly Weather History & Observations

Time (MST) Temp. Windchill Dew Point Humidity Pressure Visibility Wind Dir Wind Speed Gust Speed Precip Events Conditions
12:53 AM 25.0 °F 14.8 °F 18.0 °F 75% 30.21 in 10.0 mi SSW 10.4 mph - N/A   Clear
1:53 AM 25.0 °F 19.3 °F 18.0 °F 75% 30.18 in 10.0 mi SW 4.6 mph - N/A   Clear
2:53 AM 24.1 °F 15.2 °F 18.0 °F 77% 30.15 in 10.0 mi South 8.1 mph - N/A   Clear
3:53 AM 23.0 °F - 17.1 °F 78% 30.13 in 10.0 mi Calm Calm - N/A   Clear
4:53 AM 21.9 °F 15.7 °F 17.1 °F 82% 30.13 in 10.0 mi SSE 4.6 mph - N/A   Clear
5:53 AM 21.9 °F 14.5 °F 17.1 °F 82% 30.13 in 10.0 mi South 5.8 mph - N/A   Clear
6:53 AM 21.9 °F - 16.0 °F 78% 30.15 in 10.0 mi Calm Calm - N/A   Clear
7:53 AM 26.1 °F - 18.0 °F 71% 30.15 in 10.0 mi Calm Calm - N/A   Clear
8:53 AM 30.9 °F 26.2 °F 17.1 °F 57% 30.14 in 10.0 mi WNW 4.6 mph - N/A   Clear
9:53 AM 37.0 °F 34.5 °F 18.0 °F 46% 30.09 in 10.0 mi NNE 3.5 mph - N/A   Clear
10:53 AM 41.0 °F 38.0 °F 19.0 °F 41% 30.06 in 10.0 mi Variable 4.6 mph - N/A   Clear
11:53 AM 46.9 °F - 21.0 °F 36% 30.00 in 10.0 mi Variable 3.5 mph - N/A   Clear
12:53 PM 51.1 °F - 23.0 °F 33% 29.94 in 10.0 mi WSW 8.1 mph - N/A   Clear
1:53 PM 55.0 °F - 21.9 °F 28% 29.88 in 10.0 mi Variable 4.6 mph - N/A   Clear
3:53 PM 59.0 °F - 19.0 °F 21% 29.84 in 10.0 mi Variable 6.9 mph - N/A   Clear
4:53 PM 57.9 °F - 23.0 °F 26% 29.85 in 10.0 mi West 12.7 mph 26.5 mph N/A   Clear
5:53 PM 53.1 °F - 21.0 °F 29% 29.87 in 10.0 mi WSW 9.2 mph - N/A   Clear
6:53 PM 50.0 °F - 21.0 °F 32% 29.91 in 10.0 mi SW 9.2 mph - N/A   Clear
7:53 PM 46.0 °F 42.5 °F 23.0 °F 40% 29.91 in 10.0 mi East 6.9 mph - N/A   Clear
8:53 PM 44.1 °F 40.8 °F 23.0 °F 43% 29.90 in 10.0 mi SSW 5.8 mph - N/A   Clear
9:53 PM 44.1 °F 41.5 °F 23.0 °F 43% 29.88 in 10.0 mi South 4.6 mph - N/A   Clear
10:53 PM 37.9 °F 32.7 °F 25.0 °F 60% 29.89 in 10.0 mi ESE 6.9 mph - N/A   Clear
11:53 PM 39.0 °F 36.8 °F 24.1 °F 55% 29.86 in 10.0 mi Variable 3.5 mph - N/A   Clear